TimeCST,TemperatureF,Dew PointF,Humidity,Sea Level PressureIn,VisibilityMPH,Wind Direction,Wind SpeedMPH,Gust SpeedMPH,PrecipitationIn,Events,Conditions,WindDirDegrees,DateUTC
12:53 AM,32.0,21.9,66,30.26,10.0,SSW,6.9,-,N/A,,Clear,200,2012-12-31 06:53:00
1:53 AM,32.0,21.9,66,30.28,10.0,SSW,4.6,-,N/A,,Mostly Cloudy,210,2012-12-31 07:53:00
2:53 AM,32.0,23.0,69,30.28,10.0,South,3.5,-,N/A,,Mostly Cloudy,180,2012-12-31 08:53:00
3:53 AM,32.0,24.1,73,30.25,10.0,South,4.6,-,N/A,,Overcast,180,2012-12-31 09:53:00
4:45 AM,32.0,26.6,80,30.20,6.0,Calm,Calm,-,0.02,Rain,Light Freezing Rain,0,2012-12-31 10:45:00
4:53 AM,32.0,26.1,79,30.22,5.0,Calm,Calm,-,0.03,Rain,Light Freezing Rain,0,2012-12-31 10:53:00
5:53 AM,32.0,28.9,88,30.22,5.0,South,5.8,-,0.03,Rain,Light Freezing Rain,180,2012-12-31 11:53:00
6:22 AM,32.0,28.4,87,30.20,3.0,SW,6.9,-,0.03,Rain,Light Freezing Rain,220,2012-12-31 12:22:00
6:43 AM,32.0,30.2,93,30.21,4.0,SSW,5.8,-,0.04,Rain,Light Freezing Rain,210,2012-12-31 12:43:00
6:53 AM,32.0,30.0,92,30.23,4.0,SSW,5.8,-,0.04,Rain,Light Freezing Rain,200,2012-12-31 12:53:00
7:41 AM,32.0,30.2,93,30.20,2.5,SSW,9.2,-,0.01,Snow,Light Snow,210,2012-12-31 13:41:00
7:53 AM,32.0,30.0,92,30.23,2.5,SSW,8.1,-,0.01,Snow,Light Snow,210,2012-12-31 13:53:00
8:06 AM,33.8,30.2,87,30.20,1.2,SSW,8.1,-,0.00,Snow,Light Snow,210,2012-12-31 14:06:00
8:17 AM,33.8,30.2,87,30.18,1.8,SSW,4.6,-,0.00,Snow,Light Snow,210,2012-12-31 14:17:00
8:24 AM,33.8,30.2,87,30.17,2.5,SSW,3.5,-,0.00,Snow,Light Snow,200,2012-12-31 14:24:00
8:36 AM,33.8,30.2,87,30.18,3.0,SW,3.5,-,0.01,Rain,Light Freezing Rain,220,2012-12-31 14:36:00
8:53 AM,33.1,30.9,92,30.19,3.0,South,3.5,-,0.02,Rain,Light Freezing Rain,180,2012-12-31 14:53:00
9:04 AM,33.8,30.2,87,30.17,4.0,South,4.6,-,0.01,,Overcast,190,2012-12-31 15:04:00
9:53 AM,33.1,30.0,89,30.20,3.0,SSW,4.6,-,0.02,Snow,Light Snow,210,2012-12-31 15:53:00
10:01 AM,33.8,30.2,87,30.18,3.0,Calm,Calm,-,0.00,Snow,Light Snow,0,2012-12-31 16:01:00
10:53 AM,34.0,30.9,89,30.19,6.0,South,3.5,-,0.00,,Overcast,190,2012-12-31 16:53:00
11:53 AM,35.1,32.0,89,30.16,5.0,WSW,4.6,-,0.01,,Overcast,250,2012-12-31 17:53:00
12:53 PM,35.1,32.0,89,30.13,4.0,SSW,3.5,-,0.03,Rain,Light Rain,200,2012-12-31 18:53:00
1:03 PM,35.6,32.0,87,30.10,5.0,SSW,4.6,-,0.01,Rain,Light Rain,210,2012-12-31 19:03:00
1:10 PM,35.6,32.0,87,30.09,4.0,SSW,3.5,-,0.01,Rain,Light Rain,210,2012-12-31 19:10:00
1:22 PM,35.6,32.0,87,30.09,4.0,SSW,3.5,-,0.02,Rain,Light Rain,200,2012-12-31 19:22:00
1:30 PM,35.6,32.0,87,30.06,4.0,SSE,4.6,-,0.02,Rain,Light Rain,150,2012-12-31 19:30:00
1:42 PM,35.6,32.0,87,30.06,5.0,South,5.8,-,0.03,,Overcast,170,2012-12-31 19:42:00
1:49 PM,35.6,32.0,87,30.06,5.0,South,5.8,-,0.03,,Overcast,170,2012-12-31 19:49:00
1:53 PM,35.1,32.0,89,30.09,4.0,South,4.6,-,0.03,,Overcast,180,2012-12-31 19:53:00
2:02 PM,35.6,32.0,87,30.07,3.0,South,4.6,-,0.00,Rain,Light Rain,180,2012-12-31 20:02:00
2:11 PM,35.6,33.8,93,30.06,2.5,South,3.5,-,0.01,Rain,Light Rain,170,2012-12-31 20:11:00
2:23 PM,35.6,33.8,93,30.05,1.8,South,4.6,-,0.02,Rain,Light Rain,170,2012-12-31 20:23:00
2:53 PM,35.1,33.1,92,30.09,1.5,SSE,5.8,-,0.05,Rain,Light Rain,150,2012-12-31 20:53:00
3:18 PM,35.6,33.8,93,30.06,1.8,SE,4.6,-,0.03,Rain,Light Rain,140,2012-12-31 21:18:00
3:34 PM,35.6,33.8,93,30.05,2.5,SSE,4.6,-,0.06,Rain,Light Rain,150,2012-12-31 21:34:00
3:43 PM,35.6,33.8,93,30.04,3.0,SE,3.5,-,0.06,Rain,Light Rain,140,2012-12-31 21:43:00
3:50 PM,35.6,33.8,93,30.04,2.5,SE,3.5,-,0.07,Rain,Light Rain,130,2012-12-31 21:50:00
3:53 PM,35.1,33.1,92,30.06,2.5,SE,4.6,-,0.07,Rain,Light Rain,140,2012-12-31 21:53:00
4:03 PM,35.6,33.8,93,30.04,3.0,SSE,5.8,-,0.00,,Overcast,150,2012-12-31 22:03:00
4:17 PM,35.6,33.8,93,30.03,2.0,SE,4.6,-,0.00,,Overcast,130,2012-12-31 22:17:00
4:39 PM,33.8,32.0,93,30.03,1.5,SE,4.6,-,0.01,,Overcast,130,2012-12-31 22:39:00
4:53 PM,34.0,33.1,96,30.05,1.5,SE,4.6,-,0.02,,Overcast,130,2012-12-31 22:53:00
5:11 PM,33.8,33.8,100,30.03,2.0,ESE,3.5,-,0.01,Rain,Light Rain,110,2012-12-31 23:11:00
5:37 PM,33.8,33.8,100,30.02,3.0,ESE,3.5,-,0.03,Rain,Light Rain,120,2012-12-31 23:37:00
6:53 PM,34.0,33.1,96,30.06,4.0,SSE,4.6,-,0.00,,Overcast,150,2013-01-01 00:53:00
7:14 PM,33.8,33.8,100,30.02,2.0,SSE,4.6,-,N/A,,Overcast,150,2013-01-01 01:14:00
7:24 PM,33.8,33.8,100,30.03,1.8,SSE,3.5,-,N/A,,Overcast,160,2013-01-01 01:24:00
7:35 PM,33.8,33.8,100,30.03,2.0,SSE,4.6,-,0.01,,Overcast,160,2013-01-01 01:35:00
8:35 PM,35.6,33.8,93,30.03,1.8,Calm,Calm,-,N/A,,Overcast,0,2013-01-01 02:35:00
8:53 PM,34.0,33.1,96,30.06,1.8,Calm,Calm,-,N/A,,Overcast,0,2013-01-01 02:53:00
9:53 PM,34.0,33.1,96,30.05,1.5,Calm,Calm,-,N/A,,Overcast,0,2013-01-01 03:53:00
10:32 PM,33.8,33.8,100,30.03,2.0,SE,3.5,-,N/A,,Overcast,140,2013-01-01 04:32:00
10:41 PM,33.8,33.8,100,30.03,1.5,Calm,Calm,-,N/A,,Overcast,0,2013-01-01 04:41:00
10:53 PM,34.0,33.1,96,30.06,1.0,SSE,4.6,-,N/A,,Mist,160,2013-01-01 04:53:00
11:08 PM,33.8,33.8,100,30.04,1.2,SSW,5.8,-,N/A,,Overcast,200,2013-01-01 05:08:00
11:25 PM,33.8,33.8,100,30.03,1.0,Calm,Calm,-,N/A,,Overcast,0,2013-01-01 05:25:00
11:42 PM,33.8,33.8,100,30.03,0.8,Calm,Calm,-,N/A,,Mist,0,2013-01-01 05:42:00
11:53 PM,34.0,33.1,96,30.06,0.8,Calm,Calm,-,N/A,,Mist,0,2013-01-01 05:53:00